www.pogodaiklimat.ru

Погода и климат >> Архив погоды >> Сербия >> Банатски-Карловац


ПОГОДА в Банатски-Карловаце

  • Прогноз погоды в Банатски-Карловаце
  • Монитор погоды в Банатски-Карловаце

АРХИВ ПОГОДЫ в Банатски-Карловаце

Время (UTC), дата Ветер
(напр.,м/с)
 
Видим.   Явления Облачность Т
(С)
Тd
(С)
f
(%)
Тe
(С)
Тes
(С)
Комфортность P
(гПа)
Po
(гПа)
Тmin
(С)
Tmax
(С)
R
(мм)
R24
(мм)
S
(см)
07 13.09 З 2 20 км ясно +19.0 +12.7 67 +21 +25 комфорт 1029.6 1018.8
08 13.09 З 2 20 км ясно +20.9 +13.6 63 +24 +32 комфорт 1029.5 1018.7
09 13.09 З 3 20 км ясно +23.4 +13.4 53 +27 +35 душно 1029.2 1018.6
10 13.09 З 3 20 км ясно +25.2 +13.2 47 +27 +37 жарко 1028.7 1018.1
11 13.09 З 3 20 км ясно +26.3 +13.2 44 +28 +38 жарко 1028.2 1017.7
12 13.09 СЗ 3 20 км ясно +26.8 +12.2 40 +28 +37 жарко 1027.7 1017.2
13 13.09 З 2 20 км ясно +27.4 +12.6 40 +29 +37 жарко 1027.1 1016.6
14 13.09 З 3 20 км ясно +27.8 +14.2 43 +30 +34 жарко 1026.5 1016.1
15 13.09 З 3 20 км ясно +27.4 +13.3 42 +29 +31 жарко 1026.4 1015.9
16 13.09 З 2 20 км ясно +26.5 +14.1 46 +29 +29 жарко 1026.1 1015.6
17 13.09 З 1 20 км ясно +22.1 +15.0 64 +26 +26 душно 1026.5 1015.9
18 13.09 З 2 20 км ясно +18.8 +13.7 72 +20 +20 1027.1 1016.3 +27.8
19 13.09 З 2 20 км ясно +18.2 +12.5 69 +19 +19 1027.5 1016.7
20 13.09 З 2 20 км ясно +18.8 +12.8 68 +20 +20 1027.9 1017.1
21 13.09 З 2 20 км ясно +18.4 +12.9 70 +19 +19 1027.8 1017.0
22 13.09 З 2 20 км ясно +17.8 +13.2 74 +18 +18 1027.7 1016.9
23 13.09 З 2 20 км ясно +17.0 +13.5 80 +17 +17 1027.8 1017.0
00 14.09 СВ 1 20 км ясно +15.1 +13.5 90 +16 +16 1027.7 1016.8
01 14.09 З 1 20 км ясно +12.6 +11.2 91 +13 +13 1027.5 1016.5
02 14.09 З 2 20 км ясно +14.2 +12.3 88 +14 +14 1027.4 1016.5
03 14.09 З 2 20 км ясно +14.2 +13.2 94 +14 +14 1027.3 1016.4
04 14.09 З 2 20 км ясно +13.8 +12.8 94 +13 +13 1027.5 1016.6
05 14.09 З 2 20 км ясно +14.4 +13.2 92 +14 +14 1027.6 1016.7
06 14.09 З 2 20 км ясно +17.1 +13.5 79 +17 +19 1027.9 1017.1 +11.6
07 14.09 СЗ 2 20 км ясно +19.0 +15.8 82 +21 +25 комфорт 1027.9 1017.2
08 14.09 З 1 20 км 4/0
[Ac trans]
+22.7 +16.2 67 +27 +34 душно 1027.6 1017.0
09 14.09 З 2 20 км 5/0
[Ac As]
+23.2 +15.7 63 +28 +34 душно 1027.6 1017.1
10 14.09 СЗ 2 20 км 4/4 1000 м
[Cu hum]
+25.2 +15.6 55 +28 +35 жарко 1027.1 1016.6
11 14.09 С 2 20 км 5/5 1000 м
[Cu hum]
+25.5 +14.5 51 +28 +34 жарко 1026.7 1016.2
12 14.09 С 2 20 км 6/6 1000 м
[Cu Sc]
+26.2 +14.1 47 +28 +33 жарко 1026.2 1015.7
13 14.09 С 2 20 км 5/5 1000 м
[Cu Sc]
+26.8 +13.7 44 +29 +33 жарко 1025.0 1015.2
14 14.09 С 2 20 км 4/4 1000 м
[Cu hum]
+27.0 +12.9 42 +29 +32 жарко 1025.0 1014.5
15 14.09 СЗ 3 20 км 4/4 1000 м
[Cu hum]
+26.5 +14.4 47 +29 +30 жарко 1024.6 1014.2
16 14.09 СЗ 3 20 км 3/3 1000 м
[Cu hum]
+25.2 +13.7 49 +27 +28 жарко 1024.6 1014.2
17 14.09 С 2 20 км ясно +23.5 +13.0 52 +26 +26 жарко 1025.2 1014.6
18 14.09 С 2 20 км ясно +21.5 +12.4 56 +24 +24 комфорт 1026.0 1015.3 +27.6
19 14.09 С 1 20 км ясно +19.0 +12.3 65 +21 +21 комфорт 1026.6 1015.9
20 14.09 СЗ 1 20 км ясно +17.6 +12.2 71 +19 +19 1027.0 1016.2
21 14.09 З 1 20 км ясно +16.5 +12.3 76 +17 +17 1027.1 1016.2
22 14.09 З 1 20 км ясно +15.0 +11.5 80 +16 +16 1027.2 1016.3
23 14.09 З 1 20 км ясно +14.0 +12.1 88 +14 +14 1027.3 1016.3
00 15.09 З 1 20 км ясно +13.6 +12.0 90 +14 +14 1027.3 1016.3
01 15.09 З 1 20 км ясно +13.0 +12.1 94 +13 +13 1027.1 1016.2
02 15.09 З 2 20 км ясно +12.4 +11.7 95 +11 +11 1027.2 1016.2
03 15.09 З 1 20 км ясно +11.0 +10.4 96 +11 +11 1027.1 1016.0
04 15.09 З 1 15 км ясно +9.5 +9.1 97 +9 +9 1027.3 1016.2
05 15.09 Ю 2 15 км ясно +11.5 +9.7 89 +10 +10 1027.9 1016.8
06 15.09 ЮЗ 2 15 км ясно +14.5 +11.0 80 +14 +16 1027.7 1016.8 +9.5
07 15.09 Ю 2 15 км ясно +20.3 +11.4 57 +23 +27 комфорт 1028.0 1017.3
08 15.09 Ю 3 15 км ясно +22.5 +10.3 46 +24 +30 комфорт 1027.9 1017.2
09 15.09 ЮЗ 1 15 км ясно +24.3 +10.5 42 +25 +37 комфорт 1027.6 1017.0
10 15.09 С 1 20 км 3/3 1000 м
[Cu hum]
+24.5 +11.2 43 +26 +35 жарко 1027.4 1016.8
11 15.09 СЗ 1 20 км 5/5 1000 м
[Cu med, cong]
+25.5 +11.5 42 +27 +34 жарко 1026.3 1015.8
12 15.09 В 1 20 км 3/3 1000 м
[Cu med, cong]
+26.6 +11.8 40 +28 +36 жарко 1025.4 1014.9
13 15.09 СЗ 2 20 км 1/1 1000 м
[Cu hum]
+27.0 +12.1 40 +28 +35 жарко 1024.5 1014.0
14 15.09 З 1 20 км ясно +27.2 +10.9 36 +28 +33 жарко 1023.4 1013.0
15 15.09 С 1 20 км ясно +26.5 +9.9 35 +27 +29 жарко 1022.9 1012.4
16 15.09 СЗ 1 20 км ясно +25.6 +10.1 38 +26 +27 жарко 1023.6 1012.1
17 15.09 СЗ 1 15 км ясно +21.4 +10.5 50 +23 +23 комфорт 1022.7 1012.1
18 15.09 З 1 15 км ясно +17.6 +11.6 68 +19 +19 1023.1 1012.3 +27.7
19 15.09 Ю 2 15 км ясно +15.5 +11.3 76 +15 +15 1022.9 1012.1
20 15.09 Ю 3 15 км ясно +14.4 +11.6 83 +13 +13 1022.7 1011.8
21 15.09 Ю 3 15 км ясно +13.7 +10.7 82 +13 +13 1022.3 1011.4
22 15.09 штиль 0 15 км ясно +11.6 +9.2 85 +11 +11 1022.4 1011.4
23 15.09 Ю 1 15 км ясно +10.7 +8.8 88 +10 +10 1022.2 1011.2
00 16.09 Ю 2 15 км ясно +11.0 +9.3 89 +10 +10 1021.9 1010.9
01 16.09 Ю 2 15 км ясно +11.4 +9.6 89 +10 +10 1021.7 1010.5
02 16.09 Ю 2 15 км ясно +10.0 +8.5 90 +8 +8 1021.3 1010.3
03 16.09 ЮВ 1 15 км ясно +10.9 +9.6 92 +11 +11 1020.8 1009.8
04 16.09 ЮВ 1 20 км ясно +11.5 +9.7 89 +11 +11 1020.8 1009.8
05 16.09 Ю 1 20 км ясно +11.9 +9.9 88 +12 +12 1020.7 1009.7
06 16.09 Ю 1 20 км ясно +16.9 +12.5 75 +18 +20 1020.6 1009.8 +10.0
07 16.09 Ю 1 20 км ясно +20.9 +13.6 63 +25 +29 комфорт 1010.5 1009.9
08 16.09 З 1 20 км ясно +23.2 +13.9 56 +27 +35 душно 1010.2 1009.7
09 16.09 З 2 20 км ясно +25.3 +13.3 47 +27 +37 жарко 1019.9 1009.4
10 16.09 В 1 20 км ясно +26.4 +13.9 46 +29 +42 жарко 1019.3 1008.9
11 16.09 З 3 20 км ясно +27.6 +13.3 41 +29 +39 жарко 1018.6 1008.2
12 16.09 З 1 20 км ясно +28.7 +13.8 40 +31 +42 жарко 1017.7 1007.4
13 16.09 СЗ 1 20 км ясно +29.2 +13.3 38 +31 +40 жарко 1017.0 1006.7
14 16.09 З 2 20 км ясно +28.9 +13.2 38 +30 +35 жарко 1016.5 1006.2
15 16.09 СЗ 2 20 км ясно +29.0 +14.2 40 +31 +33 жарко 1015.9 1005.6
16 16.09 З 1 20 км ясно +28.0 +14.2 43 +30 +30 жарко 1015.5 1005.2
17 16.09 З 2 20 км ясно +21.4 +14.4 64 +24 +24 комфорт 1015.8 1005.2
18 16.09 З 2 20 км ясно +18.0 +13.7 76 +19 +19 1016.1 1005.4 +29.2
19 16.09 ЮЗ 2 20 км ясно +17.2 +13.6 79 +18 +18 1016.3 1005.6
20 16.09 З 2 20 км ясно +16.4 +12.9 80 +17 +17 1016.4 1005.6
21 16.09 З 2 20 км 1/0
[Ac trans]
+16.9 +14.1 84 +17 +17 1016.4 1005.7
22 16.09 ЮЗ 3 20 км ясно +15.6 +13.6 88 +15 +15 1016.1 1005.3
23 16.09 ЮЗ 1 20 км ясно +16.5 +13.5 82 +17 +17 1015.7 1005.0
00 17.09 Ю 2 20 км ясно +14.0 +11.6 85 +13 +13 1015.8 1005.0
01 17.09 Ю 2 20 км ясно +13.0 +11.0 88 +12 +12 1015.5 1004.6
02 17.09 Ю 2 20 км ясно +13.8 +12.2 90 +13 +13 1011.5 1004.3
03 17.09 ЮВ 1 20 км 3/0
[Ac trans]
+12.5 +11.6 94 +12 +12 1015.2 1004.3
04 17.09 В 2 15 км 1/0
[Ac trans]
+11.5 +10.6 94 +10 +10 1015.4 1004.5
05 17.09 штиль 0 10 км 1/0
[Ac trans]
+11.6 +10.3 92 +11 +11 1016.2 1005.3
06 17.09 Ю 1 10 км 5/0
[Ac trans Ci sp]
+16.0 +12.4 79 +17 +18 1015.9 1005.1 +10.9
07 17.09 В 1 15 км 3/0
[Ac trans Ci fib]
+21.0 +12.8 59 +25 +29 комфорт 1015.6 1005.0
08 17.09 ЮВ 2 20 км 1/0
[Ac trans]
+23.9 +11.5 46 +25 +32 комфорт 1015.5 1005.0
09 17.09 В 2 20 км 3/0
[Ac trans]
+26.1 +12.3 42 +28 +35 жарко 1015.4 1005.0
10 17.09 ЮВ 2 20 км 3/0
[Ac trans]
+28.0 +12.0 37 +29 +38 жарко 1015.0 1004.7
11 17.09 В 2 20 км 4/0
[Ac trans]
+28.5 +13.3 39 +30 +39 жарко 1014.4 1004.1
12 17.09 СВ 2 20 км 4/1 1000 м
[Cu hum Ac trans]
+29.4 +12.9 36 +31 +38 жарко 1013.6 1003.3
13 17.09 З 2 20 км 4/1 1000 м
[Cu med, cong Ac trans]
+29.4 +12.9 36 +31 +36 жарко 1013.0 1002.7
14 17.09 С 2 20 км 4/1 1000 м
[Cu hum Ac trans]
+29.1 +13.1 37 +30 +34 жарко 1012.5 1002.2
15 17.09 СВ 5 20 км 3/1 1000 м
[Cu hum Ac trans]
+27.6 +13.3 41 +29 +30 жарко 1012.4 1002.1
16 17.09 С 3 20 км 1/0
[Ac trans]
+25.8 +12.5 44 +28 +28 жарко 1012.5 1002.1
17 17.09 СВ 2 20 км 1/0
[Ac trans]
+22.6 +13.6 57 +26 +26 жарко 1012.6 1002.1
18 17.09 СВ 2 20 км 1/0
[Ac trans]
+19.5 +12.9 66 +22 +22 комфорт 1013.1 1002.5 +30.1
19 17.09 СВ 2 20 км 1/0
[Ac trans]
+20.4 +12.8 62 +23 +23 комфорт 1013.5 1002.9
20 17.09 В 1 20 км 1/0
[Ac trans]
+18.0 +11.9 68 +19 +19 1013.6 1002.9
21 17.09 СЗ 1 20 км 1/0
[Ac trans]
+15.0 +10.0 72 +16 +16 1013.5 1002.7
22 17.09 З 2 20 км 1/0
[Ac trans]
+15.5 +11.0 75 +15 +15 1013.3 1002.6
23 17.09 З 2 20 км 1/0
[Ac trans]
+15.7 +11.9 78 +16 +16 1013.5 1002.8
00 18.09 СЗ 2 20 км 1/0
[Ac trans]
+15.7 +12.6 82 +16 +16 1014.1 1003.4
01 18.09 С 3 20 км 3/0
[Ac trans]
+17.0 +13.2 78 +17 +17 1014.5 1003.8
02 18.09 С 3 20 км 5/5 1000 м
[Sc]
+18.0 +13.7 76 +18 +18 1015.4 1004.7
03 18.09 С 3 20 км 8/8 1000 м
[Sc]
+17.0 +13.7 81 +17 +17 1016.1 1005.4
04 18.09 С 2 20 км 9/3 1000 м
[Sc Ac As]
+16.1 +11.1 72 +16 +16 1017.0 1006.2
05 18.09 СЗ 2 10 км слаб. дождь 10/10 1000 м
[Sc]
+14.7 +13.5 93 +14 +14 1018.9 1008.1
06 18.09 СЗ 1 20 км в посл. час дождь 10/10 1000 м
[Sc]
+14.2 +13.5 96 +14 +14 1019.7 1008.8 +14.1 0.9
07 18.09 З 1 20 км слаб. дождь 10/10 1000 м
[Sc]
+14.5 +13.6 94 +15 +15 1020.7 1009.8
08 18.09 З 2 20 км 10/10 1000 м
[Sc]
+15.2 +12.5 84 +15 +15 1021.2 1010.3
09 18.09 З 3 20 км 10/10 1000 м
[Sc]
+16.7 +13.2 80 +16 +16 1021.6 1010.8
10 18.09 З 5 20 км 10/10 1000 м
[Sc]
+16.2 +13.9 86 +15 +15 1022.0 1011.2
11 18.09 З 4 20 км 10/10 1000 м
[Sc]
+17.6 +16.3 92 +17 +17 1022.0 1011.2
12 18.09 З 5 20 км {дождь} 10/10 1000 м
[Sc]
+17.2 +14.9 86 +17 +17 1022.0 1011.2 0.0
13 18.09 З 4 20 км 9/9 1000 м
[Sc]
+17.5 +10.8 65 +17 +18 1022.2 1011.4
14 18.09 З 4 20 км 10/10 1000 м
[Sc]
+17.4 +8.2 55 +17 +17 1022.1 1011.3
15 18.09 З 3 20 км 10/10 1000 м
[Sc]
+16.3 +7.8 57 +16 +16 1022.1 1011.3
16 18.09 З 3 20 км 10/10 1000 м
[Sc]
+15.5 +8.8 64 +15 +15 1022.0 1011.1
17 18.09 З 2 20 км 10/10 1000 м
[Sc]
+14.8 +10.6 76 +15 +15 1022.2 1011.3
18 18.09 З 2 20 км 10/10 1000 м
[Sc]
+14.8 +7.8 63 +15 +15 1022.7 1011.8 +18.2 0.0
19 18.09 З 2 20 км 10/10 1000 м
[Sc]
+14.4 +9.5 72 +14 +14 1023.4 1012.5
20 18.09 З 1 20 км 10/10 1000 м
[Sc]
+13.8 +10.6 81 +14 +14 1023.4 1012.5
21 18.09 З 1 20 км 10/9 1000 м
[Sc]
+13.4 +9.2 76 +14 +14 1023.4 1012.5
22 18.09 З 1 20 км 4/4 1000 м
[Sc]
+11.4 +8.8 84 +11 +11 1023.6 1012.6
23 18.09 З 1 20 км 1/1 1000 м
[Sc]
+10.5 +8.2 86 +10 +10 1023.5 1012.5
00 19.09 В 1 20 км 3/3 1000 м
[Sc]
+8.5 +7.5 93 +8 +8 1023.6 1012.5
01 19.09 Ю 1 20 км ясно +6.4 +5.8 96 +5 +5 1023.7 1012.5
02 19.09 штиль 0 20 км 4/0
[Ac trans]
+5.2 +4.8 97 +4 +4 1023.5 1012.2
03 19.09 З 1 20 км ясно +4.1 +4.1 100 +2 +2 1023.4 1012.1
04 19.09 ЮЗ 1 20 км 3/0
[Ac trans]
+4.1 +4.1 100 +2 +2 1023.5 1012.3
05 19.09 З 1 10 км 4/0
[Ac trans]
+4.6 +4.6 100 +3 +3 1023.0 1012.7
06 19.09 З 1 10 км 5/0
[Ac trans]
+9.0 +7.8 92 +8 +9 1024.3 1013.2 +0.4
07 19.09 С 1 15 км 5/0
[Ac trans]
+11.0 +7.1 77 +11 +14 1024.4 1013.4
08 19.09 С 1 20 км 4/0
[Ac trans]
+15.0 +5.1 52 +16 +22 1024.4 1013.6
09 19.09 С 3 20 км 5/0
[Ac trans]
+17.0 +4.8 44 +17 +22 1024.1 1013.3
10 19.09 С 3 20 км 8/0
[Ac As]
+18.2 +4.2 39 +18 +22 1023.8 1013.1
11 19.09 С 3 20 км 8/0
[Ac As]
+18.8 +3.5 36 +19 +23 1023.6 1012.9
12 19.09 С 3 20 км 8/0
[Ac As]
+19.0 +3.3 35 +19 +23 1023.0 1012.4
13 19.09 С 2 20 км 9/0
[Ac As]
+19.0 +4.6 39 +20 +23 1022.7 1012.0
14 19.09 С 3 20 км 10/0
[Ac As]
+19.0 +5.2 40 +20 +21 1022.2 1011.5
15 19.09 СЗ 3 20 км 10/0
[Ac As]
+18.6 +4.3 39 +19 +19 1022.0 1011.3
16 19.09 С 2 20 км 4/0
[Ac trans]
+17.5 +2.9 38 +18 +18 1022.4 1011.6
17 19.09 СЗ 2 20 км 1/0
[Ac trans]
+13.5 +5.7 59 +13 +13 1023.0 1012.1
18 19.09 З 2 20 км ясно +11.2 +5.2 67 +10 +10 1023.7 1012.6 +20.3
19 19.09 З 2 20 км ясно +10.0 +4.9 71 +9 +9 1024.1 1013.0
20 19.09 З 2 20 км ясно +9.2 +4.7 73 +8 +8 1024.5 1013.4
21 19.09 З 2 20 км ясно +8.0 +3.8 75 +6 +6 1024.6 1013.4
22 19.09 З 2 20 км ясно +8.1 +3.7 74 +6 +6 1024.8 1013.6
23 19.09 З 2 20 км ясно +7.5 +4.4 81 +5 +5 1025.0 1013.9
00 20.09 З 1 20 км ясно +5.7 +3.5 86 +5 +5 1025.2 1013.9
01 20.09 СЗ 1 20 км ясно +5.9 +4.4 90 +5 +5 1025.0 1013.8
02 20.09 штиль 0 20 км ясно +3.0 +1.6 91 +2 +2 1025.2 1013.9
03 20.09 З 1 20 км ясно +4.4 +3.5 94 +3 +3 1025.2 1013.9
04 20.09 З 2 20 км ясно +5.0 +4.3 95 +2 +2 1025.3 1014.0
05 20.09 З 2 15 км ясно +5.5 +4.2 91 +3 +3 1025.7 1014.4
06 20.09 З 2 15 км ясно +7.0 +4.9 86 +5 +6 1026.1 1014.9 +2.5
07 20.09 З 2 20 км ясно +10.2 +5.8 74 +9 +13 1026.6 1015.5

 

Местоположение метеостанции Банатски-Карловац (Сербия): широта 45.05 долгота 21.03 высота над уровнем моря 91 м.

В архиве по умолчанию представлена погода в Банатски-Карловаце за последнюю неделю. Архивные данные за месяц целиком и за предыдущие месяцы, начиная с января 2011 года, Вы можете получить, выбрав интересующий диапазон дат из раскрывающегося списка и нажав кнопку "Ввод!".


*Определитесь, кто Вы:
робот инопланетянин человек

Внимание! Время в таблицах - всемирное. Для получения местного времени необходимо прибавить поправку, которая равна 1 ч.

Смотрите также архив погоды в соседних городах и на ближайших метеорологических станциях:

Погода в Вршаце (Сербия) (25 км)
Погода в Банлоке (Румыния) (38 км)
Погода в Велико-Градиште (Сербия) (51 км)
Погода в Оравице (Румыния) (51 км)
Погода в Белграде (Сербия) (52 км)
Погода в Зренянине (Сербия) (60 км)
Погода в Молдова-Вече (Румыния) (60 км)
Погода в Белград аэропорту (Сербия) (64 км)
Погода в Решице (Румыния) (75 км)
Погода в Смедеревска-Паланке (Сербия) (76 км)

Пояснения к столбцам:

Ветер - указаны скорость ветра в м/с - средняя за 10 мин, порывы в срок и между сроками (в фигурных скобках) и направление, откуда дует ветер: С - северный, СВ - северо-восточный, В - восточный, ЮВ - юго-восточный, Ю - южный, ЮЗ - юго-западный, З - западный, СЗ - северо-западный.
Видимость - горизонтальная дальность видимости в метрах или километрах. При видимости от 1 до 10 км при отсутствии осадков обычно наблюдается дымка, при ухудшении видимости до 1 км и менее - туман. В сухую погоду видимость может ухудшаться дымом, пылью или мглою.
Явления - указаны атмосферные явления, наблюдавшиеся в срок или в последний час перед сроком; фигурными скобками обозначены явления, наблюдавшиеся между сроками (за 1-3 часа до срока); квадратными скобками обозначены град или гололедные отложения с указанием их диаметра в мм.
Облачность - указаны через наклонную черту общая и нижняя облачность в баллах и высота нижней границы облаков в метрах; квадратными скобками обозначены формы облаков: Ci - перистые, Cs - перисто-слоистые, Cc - перисто-кучевые, Ac - высококучевые, As - высокослоистые, Sc - слоисто-кучевые, Ns - слоисто-дождевые, Cu - кучевые, Cb - кучево-дождевые. Подробнее классификацию облаков см. в Атласе облаков (PDF).
T - Температура воздуха - температура, измеренная на высоте 2 м над землей.
Td - Температура точки росы - температура, при понижении до которой содержащийся в воздухе водяной пар достигнет насыщения.
f - Относительная влажность воздуха - влажноcть воздуха, измеренная на высоте 2 м над землей.
Te - Эффективная температура - температура, которую ощущает одетый по сезону человек в тени. Характеристика душности погоды. При расчете учитывается влияние влажности воздуха и скорости ветра на теплоощущения человека.
Tes - Эффективная температура на солнце - температура, которую ощущает человек, с поправкой на солнечный нагрев. Характеристика знойности погоды. Зависит от высоты солнца над горизонтом, облачности и скорости ветра. Ночью, в пасмурную погоду, а также при ветре 12 м/с и более поправка равна нулю.
P - Атмосферное давление - приведенное к уровню моря атмосферное давление.
Po - Атмосферное давление - измеренное на уровне метеостанции атмосферное давление.
Tmin - Минимальная температура - минимум температуры воздуха на высоте 2 м над землей.
Tmax - Максимальная температура - максимум температуры воздуха на высоте 2 м над землей.
R - Количество осадков - Количество выпавших осадков за период времени, мм. При наведении курсора мыши на число - период времени, за который выпало указанное количество осадков.
R24 - Количество осадков - Количество выпавших осадков за 24 часа, мм.
S - Снежный покров - Высота снежного покрова, см. При наведении курсора мыши на число - состояние снежного покрова и степень покрытия местности в баллах.